Location: Recife
(8.0585°S, 34.8848°W)
Time: 06:45:42
(UTC-03:00)

Vanguard 3 - Pass Details

Date: 14 April 2026
Orbit: 507 x 3205 km, 33.4° (Epoch: 13 May)

Event Time Altitude Azimuth Distance (km) Brightness Sun altitude
Rises 16:31:01 0° 232° (SW) 6,901 12.5 10.5°
Reaches altitude 10° 16:36:16 10° 228° (SW) 5,613 12.0 9.2°
Maximum altitude 16:51:38 56° 153° (SSE) 2,225 9.3 5.5°
Drops below altitude 10° 17:00:27 10° 76° (ENE) 3,368 9.8 3.4°
Sets 17:02:48 0° 72° (ENE) 4,056 10.2 2.8°
